Location: Wald
(31.7579°N, 86.6655°W)
Time: 00:40:52
(UTC+00:00)

Cosmos 468 Rocket - Pass Details

Date: 14 July 2020
Orbit: 743 x 780 km, 74.0° (Epoch: 12 August)

Event Time Altitude Azimuth Distance (km) Brightness Sun altitude
Rises 09:18:30 0° 339° (NNW) 3,264 7.5 -17.4°
Reaches altitude 10° 09:20:54 10° 336° (NNW) 2,335 6.7 -17.0°
Maximum altitude 09:26:09 63° 257° (WSW) 869 4.0 -16.1°
Drops below altitude 10° 09:31:21 10° 177° (S) 2,321 6.2 -15.3°
Enters shadow 09:33:27 - 174° (S) 3,130 6.9 -14.9°
